Regional Weather Roundup
Issued by NWS

Home | Current Version | Previous Version | Graphics & Text | Print | Product List | Glossary On
Versions: 1 2 3 4 5 6 7 8 9 10 11 12 13 14 15 16 17 18 19 20 21 22 23 24 25 26 27 28 29 30 31 32 33 34 35 36 37 38 39 40 41 42 43 44 45 46 47 48 49 50
000
ASUS43 KLOT 271300
RWRIL

ILLINOIS REGIONAL WEATHER ROUNDUP
NATIONAL WEATHER SERVICE CHICAGO/ROMEOVILLE IL
800 AM CDT FRI MAR 27 2015

NOTE: "FAIR" INDICATES FEW OR NO CLOUDS BELOW 12,000 FEET WITH NO
SIGNIFICANT WEATHER AND/OR OBSTRUCTIONS TO VISIBILITY.

* THESE STATIONS ARE NOT UNDER NWS QUALITY CONTROL. THEY ALSO MAY NOT
  REPORT WEATHER SUCH AS PRECIPITATION OR FOG.

ILZ001-002-007-009-015-016-024-271400-
NORTHWEST ILLINOIS

CITY           SKY/WX    TMP DP  RH WIND       PRES   REMARKS
MOLINE         PTSUNNY   27  11  51 N12       30.19R WCI  17
$$

ILZ003-004-008-010-011-017-018-271400-
NORTH CENTRAL ILLINOIS

CITY           SKY/WX    TMP DP  RH WIND       PRES   REMARKS
ROCKFORD       NOT AVBL
$$

ILZ005-006-012>014-019>023-271400-
NORTHEAST ILLINOIS

CITY           SKY/WX    TMP DP  RH WIND       PRES   REMARKS
CHICAGO-OHARE  PTSUNNY   22   8  55 N15       30.15R WCI   9
CHICAGO-MIDWAY NOT AVBL
AURORA         SUNNY     24  14  65 N18       30.15R WCI  10
WAUKEGAN       NOT AVBL
DUPAGE AIRPORT CLOUDY    23   8  52 N17       30.14R WCI   9
WHEELING       PTSUNNY   21   6  52 N13G20    30.17R WCI   9
NORTHERLY ISL    N/A     26  15  63 NW17        N/A  WCI  13
$$

LMZ740>746-271400-
SOUTHERN LAKE MICHIGAN

STATION/POSITION SKY/WX   TEMP    WIND        PRES    VSBY  WAVE
                          AIR SEA DIR/SP/G                  HT/PER
                          (F)     (DEG/KT/KT) (MB)    (MI)  (FT/S)
HARRISON CRIB              25     360/ 23/ 28   N/A
BURNHAM HARBOR             25     350/ 14/ 22   N/A
CALUMET HARBOR             25     340/ 16/ 22 1018.8R
BURNS HARBOR               27      10/ 21/ 26 1019.6R
MICHIGAN CITY              26     360/ 26/ 29   N/A
$$

ILZ025>027-034>036-040-047-049-050-058-095>099-271400-
WEST-CENTRAL ILLINOIS

CITY           SKY/WX    TMP DP  RH WIND       PRES   REMARKS
$$

ILZ028>032-037-038-041>044-048-051>054-059>061-271400-
CENTRAL ILLINOIS

CITY           SKY/WX    TMP DP  RH WIND       PRES   REMARKS
PEORIA         NOT AVBL
SPRINGFIELD    PTSUNNY   31  23  72 N7        30.15R WCI  24
TAYLORVILLE    NOT AVBL
$$

ILZ033-039-045-046-055>057-062-063-271400-
EAST-CENTRAL ILLINOIS

CITY           SKY/WX    TMP DP  RH WIND       PRES   REMARKS
CHAMPAIGN      CLOUDY    31  21  66 N14       30.10R WCI  21
MATTOON        CLOUDY    32  27  81 N13       30.08R WCI  22
$$

ILZ079-100>102-271400-
SOUTHWEST ILLINOIS

CITY           SKY/WX    TMP DP  RH WIND       PRES   REMARKS
BELLEVILLE     PTSUNNY   32  30  93 N8        30.12R WCI  25
CAHOKIA*       CLOUDY    34  28  79 N12       30.15R WCI  25
$$

ILZ064>066-069>071-074>076-080>082-084>086-088>090-092>094-271400-
SOUTH-CENTRAL ILLINOIS

CITY           SKY/WX    TMP DP  RH WIND       PRES   REMARKS
CARBONDALE     NOT AVBL
MARION         CLOUDY    37  30  75 N12       30.09R WCI  30
$$

ILZ067-068-072-073-078-083-087-091-271400-
SOUTHEAST ILLINOIS

CITY           SKY/WX    TMP DP  RH WIND       PRES   REMARKS
$$

ABBREVIATIONS USED IN REMARKS
   TC - TEMPERATURE IN CELSIUS
  WCI - WIND CHILL INDEX
   HX - HEAT INDEX
  VSB - VISIBILITY
$$



USA.gov is the U.S. government's official web portal to all federal, state and local government web resources and services.